04:40
Airports
History
Links
Donate
Help keep this website running!
PayPal
Bitcoin
This page is community maintained. The information is intended for PC simulator navigation or reference.
Always use approved charts for navigation.
CDY6
Dayspring Airpark
Dayspring Airpark (CDY6)
Lunenburg, Nova Scotia, Canada
4
Lat/Lng:44° 22' 53.29" N / 64° 27' 28.56" W
44.381469 / -64.457932
Elevation:175'ft / 53mMSL
ID / ICAO:CDY6
Runways:1
Longest:15-33
Gravel 547m / 1,795ft
Nearby Weather04:00 GMT 2017-12-12
Nearby weather at CYZX, Greenwood located 47.3 nautical miles from CDY6
Altimeter: 30.02
Visibility: 15.0 statute miles
Wind: 0 knots (from 000°)
Temp: -2°c / 28°f
Humidity: 86.1%

METAR: CYZX 120400Z 00000KT 15SM SCT030 BKN070 M02/M04 A3002 RMK SC3AC4 WNDY HILL UNAVBL SLP167

(Powered by phpweather)
Nearby VORs <50NM
Nearby NDBs
Runway 15 / 33
Dimensions:547.2 x 14.9m 1795' x 49'ft
Surface:Gravel
Runway 15 [A]Runway 33 [B]
Heading:133°TH 313°TH
Lat:
Lng:
44° 22' 59.36"N
64° 27' 37.63"W
44° 22' 47.22"N
64° 27' 19.47"W
User Notes and Comments
44° 22' 53.29" N / 64° 27' 28.56" W
Distance To
Airport ID:
Nearby Airports
(U) LIVERPOOL 22.3 NM
CYAU WSW 242°
(C) Waterville Kings Co Muni 47.3 NM
CCW3 NNW 348°
(C) Greenwood 47.3 NM
CYZX ( WX ) NNW 331°
(C) SHEARWATER 50.5 NM
CYAW ( WX ) ENE 69°
4 STANLEY 56.3 NM
CCW4 NNE 27°
(C) HALIFAX INTL 58.0 NM
CYHZ ( WX ) NE 53°
(U) DIGBY 66.4 NM
CYID W 279°
VFR Chart
Flight Planning at SkyVector.com